Location: Unspecified
(0.0000°N, 0.0000°E)
Time: 12:35:40
(UTC+00:00)

CUTE 1.7 + AOD 2 - Pass Details

Date: 10 December 2017
Orbit: 594 x 613 km, 97.5° (Epoch: 18 June)

Event Time Altitude Azimuth Distance (km) Brightness Sun altitude
Rises 18:22:49 0° 160° (SSE) 2,832 ? -6.9°
Reaches altitude 10° 18:25:02 10° 154° (SSE) 1,930 ? -7.4°
Maximum altitude 18:29:05 50° 79° (E) 763 ? -8.3°
Drops below altitude 10° 18:33:09 10° 3° (N) 1,931 ? -9.2°
Sets 18:35:22 0° 358° (N) 2,833 ? -9.7°
